This is the latest recevied weather packets stored in our database for station/object KF6YUA. If no packets are shown the sender has not sent any weather packets the latest 10 day(s).
| Time | Temp. | Humidity | Pressure | Rain* | Wind** | Luminosity | Snow |
|---|---|---|---|---|---|---|---|
| 1777780211 | 11.67° C | 90% | 1013.4 hPa | 0 mm | - | 0 W/m² | - |
| 1777779908 | 12.22° C | 90% | 1013.6 hPa | 0 mm | - | 0 W/m² | - |
| 1777779605 | 11.67° C | 90% | 1013.4 hPa | 0 mm | - | 0 W/m² | - |
| 1777779302 | 11.67° C | 90% | 1013.3 hPa | 0 mm | - | 0 W/m² | - |
| 1777779000 | 11.67° C | 89% | 1013.4 hPa | 0 mm | - | 0 W/m² | - |
| 1777778698 | 11.67° C | 89% | 1013.4 hPa | 0 mm | - | 0 W/m² | - |
| 1777778396 | 11.67° C | 89% | 1013.4 hPa | 0 mm | - | 0 W/m² | - |
| 1777778094 | 11.67° C | 89% | 1013.3 hPa | 0 mm | - | 0 W/m² | - |
| 1777777790 | 12.22° C | 89% | 1013.3 hPa | 0 mm | - | 0 W/m² | - |
| 1777777486 | 12.22° C | 89% | 1013.3 hPa | 0 mm | - | 0 W/m² | - |
| 1777777183 | 12.22° C | 89% | 1013.2 hPa | 0 mm | - | 0 W/m² | - |
| 1777776880 | 12.22° C | 89% | 1013.1 hPa | 0 mm | - | 2 W/m² | - |
| 1777776578 | 12.22° C | 88% | 1013.3 hPa | 0 mm | - | 4 W/m² | - |
| 1777776274 | 12.22° C | 88% | 1013.3 hPa | 0 mm | - | 0 W/m² | - |
| 1777775972 | 12.22° C | 88% | 1013.4 hPa | 0 mm | - | 1 W/m² | - |
| 1777775668 | 12.22° C | 87% | 1013.3 hPa | 0 mm | - | 5 W/m² | - |
| 1777775365 | 12.22° C | 87% | 1013.3 hPa | 0 mm | - | 7 W/m² | - |
| 1777775060 | 12.22° C | 87% | 1013.3 hPa | 0 mm | - | 12 W/m² | - |
| 1777774756 | 12.22° C | 87% | 1013.3 hPa | 0 mm | - | 15 W/m² | - |
| 1777774452 | 12.22° C | 86% | 1013.4 hPa | 0 mm | - | 18 W/m² | - |
| 1777774150 | 12.78° C | 86% | 1013.4 hPa | 0 mm | - | 21 W/m² | - |
| 1777773848 | 12.78° C | 85% | 1013.2 hPa | 0 mm | - | 24 W/m² | - |
| 1777773544 | 12.78° C | 85% | 1013.3 hPa | 0 mm | - | 32 W/m² | - |
| 1777773241 | 12.78° C | 85% | 1013.4 hPa | 0 mm | - | 39 W/m² | - |
| 1777772936 | 12.78° C | 85% | 1013.6 hPa | 0 mm | - | 48 W/m² | - |
* Rain latest hour (hover to see other rain measurements)
** Current wind speed in m/s (hover to see current wind gust speed)